STARLINK-1323 (45553 NORAD) Tracking and Keplerian Element Data

This shows tracking and keplerian element data for the satellite.

Feedback or suggestion? Click here.




ElementValue
Catalog45553
NameSTARLINK-1323
Epoch Orbit178
Epoch Day145.33334491
Epoch Year2020
RAAN243.746
Inclination52.9988
Eccentricity0.0001175
Argument of Perigee105.8384
Mean Anonmoly110.572
Mean Motion15.62784329
Decay Rate0.00013327
L11 45553U 20025Y 20145.33334491 .00013327 00000-0 15095-3 0 9992
L22 45553 52.9988 243.7460 0001175 105.8384 110.5720 15.62784329 1783

Live tracking and technical data element details for STARLINK-1323 (NORAD 45553). STARLINK-1323 can be tracked NOW for your location showing map with azimuth and elevation plus other details from your city location.

Track the satellite on the map from your city or location and see movement details for azimuth, elevation, latitude, longitude, range, height, and movement on the map or in text.







IsCatalogInMostPopularTable: catalog: 45553, numindb: 11
Update: records affected: 1



GetName: 45553 STARLINK-1323

Hit Count: updated at: Mon, 25 May 2020 08:49:08 GMT